Location: *
(45.9500°N, 9.0833°E)
Time: 14:53:42
(UTC+00:00)

Cosmos 2218 Rocket - Pass Details

Date: 03 March 2021
Orbit: 955 x 1007 km, 82.9° (Epoch: 19 April)

Event Time Altitude Azimuth Distance (km) Brightness Sun altitude
Rises 18:47:14 0° 172° (S) 3,719 6.9 -17.1°
Reaches altitude 10° 18:49:48 10° 168° (SSE) 2,775 6.2 -17.6°
Maximum altitude 18:56:01 56° 92° (E) 1,184 4.1 -18.6°
Drops below altitude 10° 19:02:15 10° 16° (NNE) 2,788 6.3 -19.7°
Sets 19:04:50 0° 13° (NNE) 3,738 7.1 -20.1°
